Location: Marcé
(47.5801°N, 0.3280°W)
Time: 21:30:21
(UTC+01:00)

Altair - Pass Details

Date: 11 December 2021
Orbit: 1501 x 1683 km, 47.2° (Epoch: 20 January)

Event Time Altitude Azimuth Distance (km) Brightness Sun altitude
Rises 13:21:20 0° 205° (SSW) 4,856 11.5 19.1°
Reaches altitude 10° 13:24:54 10° 196° (SSW) 3,847 11.8 19.1°
Maximum altitude 13:33:13 33° 137° (SE) 2,428 9.3 18.8°
Drops below altitude 10° 13:41:17 10° 78° (ENE) 3,735 9.4 18.6°
Sets 13:44:40 0° 69° (ENE) 4,698 9.7 18.5°
